Location: Arroyo Grande
(40.2671°N, 4.2512°W)
Time: 06:39:21
(UTC+00:00)

Delta 2 Rocket - Pass Details

Date: 03 February 2023
Orbit: 410 x 753 km, 35.6° (Epoch: 25 March)

Event Time Altitude Azimuth Distance (km) Brightness Sun altitude
Rises 18:29:39 0° 250° (WSW) 2,344 8.7 -10.3°
Reaches altitude 10° 18:31:52 10° 241° (WSW) 1,468 6.9 -10.7°
Maximum altitude 18:34:54 34° 174° (S) 688 3.9 -11.3°
Enters shadow 18:37:17 15° 113° (ESE) 1,234 4.6 -11.7°
